User: anonymous   Login
Location: Unspecified
(0.0000°N, 0.0000°E)
Time: 20:12:58
(UTC+02:00)
Language:

SeaSat 1 - Orbit

View from above orbital plane
View from above orbital plane
View from above satellite
View from above satellite

Ground track
Ground track

The orbit data is extracted from the following two-line orbital elements,

1 10967U 78064A   14298.16439380  .00000826  00000-0  28629-3 0  4223
2 10967 107.9939 082.2662 0001386 253.8316 223.9742 14.43121791907227
Epoch (UTC): 25 October 2014 03:56:43
Eccentricity: 0.0001386
inclination: 107.9939°
perigee height: 747 km
apogee height: 749 km
right ascension of ascending node: 82.2662°
argument of perigee: 253.8316°
revolutions per day: 14.43121791
mean anomaly at epoch: 223.9742°
orbit number at epoch: 90722

The dashed part of the orbit path shows where the satellite is in the earth's shadow,  

DLR